Wind_Speed
22 21 22 22 23 23 22 21 20 19 18 17 16 16 16 16 16 16 15 14 14 14 14 13 13 13 12 12 12 12 11 12 12 12 11 11 10 10 9 9 9 9 8 8 8 8 7 7 7
23 23 23 24 24 24 23 22 22 21 20 19 18 18 18 18 17 17 16 16 15 15 15 15 14 14 14 14 13 13 13 13 13 13 13 13 12 12 12 11 11 11 10 10 10 9 9 9 9
24 25 25 26 26 25 24 24 24 23 22 22 21 20 20 19 19 18 18 17 17 17 17 16 17 16 16 15 15 15 15 15 15 15 15 15 15 14 14 14 13 13 13 13 12 12 12 12 11
25 26 27 27 27 26 25 25 25 25 24 23 23 23 22 21 20 20 19 19 19 18 18 18 18 18 18 17 17 17 17 17 17 17 17 17 17 16 16 15 15 15 15 15 15 15 15 14 14
27 27 28 28 27 27 26 26 26 26 26 25 25 25 24 23 22 21 21 20 20 20 20 19 19 19 19 19 19 19 19 19 19 19 19 19 18 18 18 17 17 17 17 17 17 17 18 17 17
28 28 28 28 28 27 27 28 27 27 27 26 26 26 26 25 24 23 22 22 22 21 21 21 21 20 20 20 20 21 21 21 21 21 21 21 21 20 20 20 19 19 19 19 19 20 20 20 20
29 29 30 29 29 28 28 28 28 28 28 27 27 27 26 26 26 25 25 24 23 23 23 23 22 22 22 22 22 22 23 23 23 24 23 23 23 23 22 22 21 21 21 21 21 22 22 22 22
29 31 31 30 30 29 29 29 29 29 29 29 29 28 27 27 27 27 26 26 25 24 24 24 24 24 24 24 24 24 24 24 25 25 25 25 24 24 24 24 24 23 23 23 24 24 24 24 25
30 30 30 30 30 30 30 30 30 30 30 30 29 29 29 28 28 28 27 27 27 26 26 26 26 26 26 25 25 25 25 25 25 25 25 25 25 25 25 24 25 25 25 26 26 26 27 27 27
30 30 29 30 30 30 30 31 31 31 30 30 30 30 30 29 30 29 29 28 28 28 27 28 27 27 27 27 27 27 27 26 26 26 25 25 26 26 26 26 26 27 27 27 28 28 29 29 30
30 29 29 29 30 30 31 32 32 32 31 30 31 31 31 30 30 30 30 29 29 28 28 29 28 28 28 28 28 28 27 27 27 27 26 27 27 27 27 28 28 29 29 29 29 30 30 31 32
30 29 29 30 31 31 32 33 33 33 33 33 32 32 32 32 31 31 31 31 30 30 30 30 30 30 30 29 29 28 28 27 27 27 27 28 28 28 28 29 30 30 31 31 31 32 32 33 33
30 30 31 31 32 33 34 35 35 35 35 34 33 33 33 33 33 32 32 32 32 32 32 31 32 32 31 30 29 29 29 28 28 29 29 30 30 30 31 31 32 32 32 33 34 34 34 34 34
30 31 31 32 33 34 34 35 36 35 36 35 35 34 34 35 34 34 34 34 34 34 34 33 32 33 33 32 31 31 30 30 31 31 31 31 32 32 32 32 33 33 33 34 35 35 35 36 36
30 31 32 32 33 34 35 36 36 36 36 36 36 35 36 35 35 35 35 35 35 35 35 35 34 33 32 33 33 32 32 33 33 33 33 33 33 33 33 33 33 34 34 34 35 36 36 37 37
30 31 32 33 34 34 36 36 35 36 36 36 35 36 35 35 35 36 36 36 36 36 36 36 35 35 34 33 34 33 33 34 34 35 35 35 35 35 35 35 36 36 37 37 37 38 38 38 38
32 32 32 34 34 35 36 36 36 36 35 34 35 35 35 36 36 36 36 36 36 36 36 36 36 35 35 34 34 34 34 34 35 35 35 35 36 37 37 38 38 39 39 39 39 39 39 39 40
33 33 32 33 34 36 37 37 36 37 36 35 34 35 35 35 36 36 36 36 36 36 36 36 35 36 36 36 35 35 35 35 36 36 36 37 38 38 39 40 40 40 40 40 41 42 41 41 41
33 33 33 32 33 35 37 37 36 37 37 36 35 35 36 35 35 36 35 35 35 36 36 36 36 37 37 36 36 36 36 36 37 37 38 37 38 39 40 41 41 41 41 41 41 42 42 42 42
32 32 32 32 32 34 35 37 37 37 37 36 36 36 36 36 35 35 35 35 34 35 36 36 37 37 37 37 38 38 38 37 38 37 38 39 39 40 40 41 42 42 42 42 42 42 43 43 43
32 32 32 33 33 33 34 36 37 37 37 37 36 36 36 36 36 36 35 35 35 34 35 36 36 37 37 38 38 38 39 39 39 40 39 39 39 40 41 42 42 42 42 43 43 43 43 43 43
32 32 32 32 33 34 35 36 35 37 37 37 37 37 36 36 37 36 36 35 35 35 36 36 36 37 37 37 38 38 39 39 40 40 40 39 39 39 40 41 42 43 43 43 44 43 44 44 44
32 32 32 32 33 34 34 36 35 35 36 37 38 38 38 38 38 38 37 37 36 36 36 36 37 38 38 38 39 39 39 39 40 40 40 40 40 40 39 39 40 42 43 43 43 43 44 44 45
32 32 33 33 33 34 33 35 36 34 34 36 37 38 39 39 39 39 38 38 38 38 38 38 39 39 39 39 39 39 39 39 40 41 41 41 42 41 41 41 41 42 43 43 43 43 43 43 44
31 32 33 34 35 35 33 34 35 33 33 35 36 38 39 39 39 39 39 39 39 39 39 39 40 39 39 39 39 39 40 40 41 41 42 42 43 43 43 43 43 43 42 43 44 43 43 43 44
31 31 32 34 35 35 34 34 34 33 33 33 35 37 38 39 40 40 39 39 39 39 39 40 40 40 40 40 40 40 40 41 42 43 43 44 44 44 44 44 44 44 43 43 44 44 44 45 45
31 31 31 33 34 35 35 35 34 33 32 33 33 35 37 39 40 40 41 41 40 40 40 40 40 41 41 41 41 41 41 42 43 44 44 44 44 44 45 45 45 45 45 45 45 45 45 45 45
31 31 31 32 34 34 35 35 34 32 32 33 33 34 36 38 39 40 41 41 41 41 41 41 41 40 41 41 42 42 43 43 44 45 45 45 45 45 46 46 46 47 47 46 46 46 46 46 46
30 31 32 33 34 34 35 34 33 33 33 33 34 34 35 36 38 39 40 41 41 41 41 41 42 42 42 43 43 43 43 43 43 44 45 45 45 45 46 46 46 46 46 46 46 45 45 45 45
31 31 31 33 34 34 35 34 32 32 33 33 34 35 35 35 36 37 39 40 41 41 41 42 42 43 43 43 43 43 43 43 43 43 44 44 45 46 46 47 47 46 45 45 45 45 44 44 44
Wind_Direction
241 240 240 240 241 242 242 243 243 243 243 243 244 245 245 246 245 246 247 248 249 249 247 245 245 245 246 247 249 250 251 252 252 253 253 252 253 253 253 254 255 257 260 262 264 263 266 270 270
241 241 241 241 242 243 244 244 244 244 245 243 243 244 245 245 245 246 248 249 250 250 250 249 248 247 247 248 251 253 254 255 255 254 254 254 255 255 255 255 257 258 260 261 262 264 266 267 268
242 242 242 242 243 244 244 244 245 245 244 244 243 244 245 245 245 246 248 250 251 251 252 252 251 250 250 250 250 252 254 256 256 255 256 256 256 257 257 257 257 257 259 261 262 264 265 267 268
243 243 243 244 244 244 244 244 244 244 244 244 244 244 245 246 246 247 248 251 253 253 254 254 254 253 252 252 251 252 254 255 257 258 257 257 256 256 256 257 258 258 260 262 263 263 265 267 268
243 244 245 245 245 245 244 244 243 243 243 243 244 244 245 246 246 248 248 250 252 253 253 254 255 255 254 254 254 254 255 256 257 258 258 258 257 256 256 257 259 259 260 262 263 264 265 266 268
245 245 246 246 245 245 245 244 243 243 243 242 243 243 244 246 247 248 249 250 251 252 253 254 255 256 256 256 256 257 258 258 256 257 257 257 257 257 258 258 257 259 261 262 264 266 267 267 268
246 246 247 246 246 246 245 244 243 243 243 243 242 243 245 246 247 248 250 251 252 253 253 254 255 256 258 258 259 261 261 260 258 257 256 256 257 258 259 258 258 259 261 263 265 267 268 269 269
248 248 248 247 247 246 245 244 244 244 244 244 243 244 244 246 248 249 250 251 252 253 253 254 256 257 259 260 261 263 263 261 259 257 256 256 257 258 258 260 260 260 262 264 265 267 268 269 270
249 249 248 248 248 245 244 244 243 244 245 244 244 244 244 246 247 249 249 250 250 252 254 255 256 258 259 260 262 263 262 261 260 258 257 256 257 258 260 261 261 262 263 265 266 268 269 271 271
250 250 249 248 247 245 244 244 244 243 245 245 244 244 244 244 246 247 249 249 250 252 253 255 256 257 259 261 262 262 263 261 259 259 258 258 258 260 261 261 262 264 265 267 268 269 270 271 271
251 251 250 248 247 246 245 244 244 244 244 244 244 245 245 244 245 246 248 249 250 252 253 255 256 257 260 261 262 263 263 261 260 259 257 258 259 261 262 262 263 265 267 268 269 269 271 271 271
252 251 249 248 248 247 246 246 246 245 245 246 245 245 247 246 245 246 248 250 251 252 252 254 256 257 259 262 262 263 263 262 260 259 257 257 260 262 263 265 265 267 268 269 270 271 272 272 271
252 252 251 250 249 248 247 246 246 246 246 247 247 246 247 248 248 247 248 250 251 253 254 254 256 257 258 260 261 262 262 261 260 259 257 259 261 262 265 266 267 269 270 270 271 272 272 272 271
253 254 252 251 250 249 248 247 247 246 247 248 247 247 248 248 249 249 249 251 252 253 254 255 256 257 257 258 260 260 261 261 260 260 260 261 264 265 267 268 268 269 271 271 272 272 272 271 271
254 254 253 252 251 250 250 248 247 246 247 249 248 248 248 248 249 249 249 250 252 253 254 254 256 256 257 258 260 260 261 263 263 262 262 263 265 266 268 268 269 271 272 273 274 274 273 271 271
253 255 254 253 252 251 250 249 248 247 248 247 247 248 248 249 249 249 250 251 252 253 254 255 256 256 257 258 260 261 262 263 264 264 264 265 266 267 269 269 271 272 273 274 274 273 273 272 271
253 255 256 255 253 252 251 249 248 247 248 247 247 249 249 249 249 249 250 251 252 252 253 255 256 256 258 259 261 262 263 263 264 265 265 265 266 268 269 270 272 272 273 274 273 273 273 273 272
256 256 257 256 254 252 251 249 248 248 248 248 248 248 249 250 249 249 249 250 251 252 253 254 256 257 259 260 261 262 264 264 264 265 265 265 267 268 269 271 272 273 273 273 273 273 273 272 272
258 258 258 257 256 253 251 249 248 248 248 248 248 249 249 249 249 249 249 250 251 253 254 255 256 258 259 261 262 263 263 264 264 266 266 267 268 270 271 272 272 273 273 274 274 273 273 272 272
258 259 259 258 257 256 253 250 247 247 248 248 248 249 249 248 248 249 250 251 252 254 255 256 257 258 259 260 262 264 265 266 265 266 267 268 269 271 272 273 274 274 274 274 273 274 273 273 272
256 258 259 259 258 256 256 252 249 249 248 248 247 248 249 249 249 250 251 252 253 255 256 257 259 259 260 261 263 265 266 266 266 267 269 270 271 272 274 274 274 274 274 275 274 274 273 273 273
255 256 258 259 259 258 257 256 251 250 249 249 249 248 249 249 249 250 251 252 253 256 257 259 261 262 262 263 265 266 267 267 268 269 270 270 272 273 273 275 274 274 274 275 275 275 274 274 273
255 255 256 258 259 259 258 259 254 251 250 250 250 249 249 249 250 250 251 253 255 256 258 260 262 264 265 265 266 267 267 268 269 270 271 272 273 273 275 276 276 275 275 275 275 275 274 274 273
254 255 256 257 258 258 258 260 257 253 252 251 251 251 250 250 250 251 252 253 255 257 259 261 263 265 266 267 267 267 268 269 270 271 272 272 274 274 276 277 278 278 276 275 275 275 275 274 274
255 256 258 259 259 260 260 260 259 257 256 254 253 251 250 250 250 251 252 254 257 259 260 261 263 264 266 267 267 267 268 269 270 271 271 272 273 274 275 276 278 278 276 275 275 275 275 275 275
256 257 259 261 262 263 261 261 261 260 259 257 255 253 252 251 250 251 253 254 256 259 260 261 262 263 264 265 266 267 268 269 270 271 272 273 273 273 274 275 277 277 277 277 276 276 276 276 276
258 258 258 261 262 262 261 261 261 262 261 259 257 256 255 253 252 252 253 254 256 258 260 261 262 263 264 264 265 267 268 269 271 272 272 272 273 274 275 276 277 277 278 277 277 277 277 277 277
258 259 259 260 262 263 262 262 262 262 261 260 259 258 257 255 254 253 253 255 257 258 259 260 261 263 263 264 265 267 268 270 271 271 271 271 272 274 275 276 277 277 277 278 277 277 277 278 278
258 258 259 260 261 263 264 265 265 265 263 262 262 261 260 258 256 255 254 255 256 258 259 261 262 263 264 265 267 268 270 270 271 271 271 272 272 273 274 275 276 276 276 277 277 277 277 278 278
258 258 259 260 260 262 265 266 266 264 263 262 262 262 261 260 258 257 256 256 257 258 259 261 263 264 264 265 267 269 271 272 271 272 272 273 273 274 275 276 276 275 275 276 276 276 277 279 280
Height
5832 5833 5835 5837 5839 5840 5841 5843 5844 5845 5846 5847 5848 5849 5850 5851 5852 5855 5853 5852 5853 5853 5854 5854 5855 5855 5855 5856 5856 5856 5856 5857 5857 5857 5857 5857 5857 5858 5858 5857 5857 5857 5857 5857 5858 5858 5857 5857 5857
5828 5829 5831 5833 5833 5835 5837 5839 5839 5841 5842 5843 5844 5845 5846 5847 5848 5849 5849 5849 5850 5850 5851 5851 5852 5852 5853 5853 5854 5854 5854 5854 5854 5854 5855 5855 5855 5855 5855 5855 5855 5855 5855 5855 5856 5856 5856 5856 5856
5823 5824 5827 5827 5829 5831 5833 5834 5835 5836 5838 5839 5840 5841 5842 5843 5844 5845 5846 5846 5847 5847 5848 5848 5849 5849 5850 5850 5851 5851 5851 5851 5851 5852 5852 5852 5852 5853 5853 5853 5853 5853 5853 5853 5853 5853 5853 5853 5854
5818 5820 5821 5823 5824 5826 5828 5829 5830 5831 5833 5834 5836 5837 5838 5839 5840 5841 5842 5842 5843 5844 5844 5845 5845 5846 5846 5847 5847 5847 5848 5848 5848 5849 5849 5849 5849 5850 5850 5850 5850 5850 5850 5850 5850 5850 5851 5851 5851
5812 5814 5816 5816 5818 5821 5822 5824 5825 5826 5828 5830 5831 5832 5833 5835 5836 5837 5838 5839 5839 5840 5840 5841 5842 5842 5843 5843 5843 5844 5844 5844 5845 5845 5845 5846 5846 5846 5846 5846 5847 5847 5847 5847 5847 5847 5847 5847 5847
5807 5809 5810 5811 5813 5815 5817 5818 5819 5821 5822 5824 5826 5827 5828 5830 5831 5832 5834 5834 5835 5836 5836 5837 5837 5838 5839 5839 5839 5840 5840 5840 5840 5841 5841 5841 5842 5842 5842 5843 5843 5843 5843 5843 5843 5843 5843 5843 5843
5802 5802 5804 5806 5807 5809 5811 5812 5814 5816 5817 5819 5820 5822 5823 5825 5826 5827 5829 5830 5831 5831 5832 5832 5833 5834 5834 5835 5835 5835 5835 5835 5835 5835 5836 5836 5837 5837 5838 5838 5838 5839 5839 5839 5839 5839 5839 5839 5839
5795 5797 5797 5799 5801 5803 5805 5806 5808 5810 5811 5813 5814 5816 5818 5820 5821 5822 5824 5825 5826 5826 5827 5828 5828 5829 5830 5830 5830 5830 5830 5829 5829 5830 5830 5831 5832 5832 5833 5833 5834 5834 5834 5834 5834 5834 5834 5834 5834
5788 5790 5792 5794 5795 5796 5798 5799 5801 5803 5805 5807 5808 5810 5812 5814 5815 5816 5818 5819 5820 5821 5822 5823 5823 5824 5825 5825 5825 5824 5823 5823 5823 5823 5824 5826 5827 5827 5828 5828 5829 5829 5829 5829 5829 5829 5829 5828 5828
5781 5783 5786 5787 5788 5789 5791 5792 5794 5797 5799 5801 5802 5804 5805 5807 5809 5810 5812 5813 5814 5816 5816 5817 5818 5819 5819 5819 5819 5819 5818 5817 5817 5818 5819 5820 5821 5822 5823 5823 5823 5823 5823 5823 5823 5823 5823 5822 5822
5774 5777 5779 5780 5781 5782 5784 5786 5788 5790 5792 5794 5796 5797 5799 5801 5802 5804 5806 5807 5808 5809 5810 5811 5812 5813 5813 5813 5814 5813 5812 5811 5812 5813 5814 5815 5816 5816 5817 5817 5817 5817 5817 5817 5817 5817 5816 5816 5815
5768 5770 5771 5773 5774 5775 5777 5779 5781 5783 5786 5787 5789 5791 5792 5794 5796 5797 5799 5801 5802 5803 5804 5805 5806 5807 5807 5807 5807 5807 5807 5807 5807 5807 5808 5809 5810 5810 5811 5811 5811 5811 5811 5811 5810 5810 5809 5808 5808
5761 5763 5764 5765 5767 5768 5769 5771 5773 5776 5778 5780 5782 5784 5786 5787 5789 5790 5792 5794 5795 5796 5797 5798 5799 5800 5801 5801 5801 5801 5801 5801 5802 5802 5802 5803 5803 5804 5804 5804 5804 5804 5804 5804 5803 5802 5802 5801 5801
5754 5755 5757 5758 5759 5761 5762 5764 5766 5770 5771 5773 5775 5776 5778 5780 5781 5783 5785 5786 5788 5789 5790 5791 5792 5793 5794 5794 5795 5795 5795 5795 5795 5796 5796 5796 5797 5797 5797 5797 5797 5796 5796 5796 5795 5795 5794 5793 5793
5747 5748 5749 5751 5752 5753 5755 5757 5759 5762 5763 5765 5767 5769 5770 5772 5774 5776 5777 5779 5780 5781 5783 5783 5784 5785 5786 5787 5788 5788 5788 5788 5788 5789 5789 5789 5789 5789 5789 5789 5789 5789 5788 5787 5787 5786 5785 5784 5784
5739 5741 5742 5744 5744 5745 5748 5750 5752 5753 5754 5756 5759 5760 5762 5764 5766 5768 5769 5771 5772 5774 5775 5776 5776 5777 5778 5779 5780 5780 5781 5781 5781 5781 5781 5781 5782 5781 5781 5781 5781 5780 5780 5779 5778 5777 5776 5775 5774
5732 5733 5735 5736 5737 5737 5739 5741 5744 5745 5746 5748 5750 5752 5754 5756 5758 5760 5761 5763 5764 5765 5766 5768 5768 5769 5770 5771 5772 5773 5773 5773 5773 5772 5773 5773 5773 5773 5773 5773 5772 5771 5771 5770 5769 5768 5767 5766 5765
5725 5726 5727 5727 5728 5729 5730 5733 5735 5736 5738 5740 5742 5744 5746 5749 5750 5752 5753 5755 5756 5757 5758 5760 5761 5762 5762 5763 5764 5765 5765 5765 5765 5765 5765 5765 5765 5764 5764 5764 5763 5762 5761 5760 5759 5758 5757 5756 5755
5716 5717 5718 5719 5719 5720 5721 5724 5726 5728 5730 5732 5734 5736 5738 5740 5742 5744 5745 5747 5748 5749 5751 5752 5753 5753 5754 5755 5756 5756 5757 5757 5757 5757 5756 5756 5756 5755 5755 5754 5753 5752 5752 5750 5749 5748 5747 5746 5745
5708 5709 5710 5710 5711 5711 5712 5715 5717 5719 5721 5724 5726 5728 5730 5732 5734 5735 5737 5739 5740 5741 5742 5743 5744 5745 5746 5747 5747 5748 5748 5748 5748 5748 5747 5746 5746 5746 5745 5744 5743 5742 5742 5740 5739 5738 5737 5735 5734
5700 5701 5702 5702 5702 5703 5704 5706 5709 5711 5713 5715 5718 5720 5722 5724 5725 5727 5729 5730 5732 5733 5734 5735 5736 5736 5737 5738 5738 5739 5739 5739 5739 5739 5738 5737 5737 5736 5736 5735 5733 5732 5731 5730 5728 5727 5726 5725 5723
5692 5694 5694 5694 5694 5694 5696 5696 5701 5702 5704 5706 5709 5711 5713 5715 5717 5718 5720 5722 5723 5724 5725 5726 5727 5728 5728 5729 5729 5729 5729 5729 5729 5729 5728 5727 5727 5726 5725 5724 5723 5722 5720 5719 5717 5716 5714 5713 5712
5684 5685 5686 5686 5685 5685 5687 5687 5692 5693 5695 5698 5700 5702 5704 5706 5708 5710 5712 5713 5714 5716 5716 5717 5718 5718 5719 5719 5720 5720 5720 5720 5719 5719 5718 5718 5717 5716 5715 5713 5712 5711 5709 5708 5706 5705 5703 5702 5701
5676 5677 5677 5677 5676 5677 5680 5680 5682 5685 5688 5690 5691 5693 5695 5697 5699 5701 5703 5704 5705 5706 5707 5708 5709 5709 5709 5710 5710 5710 5710 5710 5709 5709 5709 5708 5707 5706 5705 5703 5701 5700 5698 5697 5695 5694 5692 5691 5689
5668 5669 5669 5668 5668 5669 5672 5671 5674 5678 5679 5680 5682 5683 5685 5687 5689 5691 5693 5695 5696 5697 5698 5698 5699 5699 5700 5700 5700 5700 5700 5700 5700 5699 5698 5698 5697 5695 5694 5693 5691 5689 5688 5686 5684 5683 5681 5679 5678
5660 5661 5662 5661 5661 5662 5663 5662 5667 5669 5670 5671 5672 5673 5675 5677 5679 5682 5683 5685 5686 5687 5688 5689 5689 5690 5690 5690 5690 5690 5690 5690 5689 5689 5688 5687 5686 5685 5683 5681 5680 5678 5676 5675 5673 5671 5670 5668 5666
5651 5652 5653 5653 5652 5653 5653 5655 5658 5660 5661 5662 5663 5664 5665 5667 5669 5671 5673 5675 5676 5677 5678 5679 5679 5680 5680 5680 5680 5680 5680 5679 5679 5678 5677 5676 5675 5673 5672 5670 5669 5667 5665 5663 5662 5660 5658 5656 5655
5643 5644 5644 5644 5643 5644 5645 5647 5649 5651 5652 5653 5653 5654 5655 5657 5658 5660 5662 5664 5665 5667 5668 5668 5669 5669 5669 5669 5669 5669 5669 5668 5668 5667 5666 5665 5663 5662 5661 5659 5657 5655 5653 5651 5650 5648 5647 5645 5643
5635 5635 5635 5635 5635 5636 5636 5641 5641 5642 5643 5643 5644 5644 5645 5646 5648 5650 5651 5653 5655 5656 5657 5657 5658 5658 5659 5659 5658 5658 5658 5657 5656 5655 5654 5653 5652 5651 5650 5648 5646 5644 5642 5640 5638 5637 5635 5633 5631
5625 5626 5627 5627 5627 5627 5628 5633 5632 5632 5633 5633 5634 5634 5635 5636 5637 5639 5640 5642 5643 5645 5646 5646 5647 5647 5647 5647 5647 5647 5646 5646 5645 5644 5643 5641 5640 5639 5638 5636 5634 5632 5630 5629 5627 5625 5623 5621 5619